This is the latest recevied weather packets stored in our database for station/object KQ7A. If no packets are shown the sender has not sent any weather packets the latest 10 day(s).
| Time | Temp. | Humidity | Pressure | Rain* | Wind** | Luminosity | Snow |
|---|---|---|---|---|---|---|---|
| 1777769629 | 18.89° C | 40% | 1013.6 hPa | 0 mm | - | 90 W/m² | - |
| 1777769325 | 20° C | 40% | 1013.5 hPa | 0 mm | - | 98 W/m² | - |
| 1777769023 | 20° C | 34% | 1013.6 hPa | 0 mm | - | 107 W/m² | - |
| 1777768720 | 20° C | 33% | 1013.9 hPa | 0 mm | - | 102 W/m² | - |
| 1777768417 | 20° C | 33% | 1013.8 hPa | 0 mm | - | 108 W/m² | - |
| 1777768113 | 20.56° C | 33% | 1013.8 hPa | 0 mm | - | 115 W/m² | - |
| 1777767811 | 20° C | 32% | 1013.9 hPa | 0 mm | - | 124 W/m² | - |
| 1777767507 | 20° C | 34% | 1013.6 hPa | 0 mm | - | 144 W/m² | - |
| 1777767203 | 20.56° C | 34% | 1013.7 hPa | 0 mm | - | 147 W/m² | - |
| 1777766901 | 20.56° C | 33% | 1013.8 hPa | 0 mm | - | 136 W/m² | - |
| 1777766598 | 20.56° C | 30% | 1013.6 hPa | 0 mm | - | 120 W/m² | - |
| 1777766295 | 20.56° C | 32% | 1013.8 hPa | 0 mm | - | 99 W/m² | - |
| 1777765992 | 20.56° C | 30% | 1013.9 hPa | 0 mm | - | 131 W/m² | - |
| 1777765689 | 20.56° C | 32% | 1013.9 hPa | 0 mm | - | 199 W/m² | - |
| 1777765386 | 20.56° C | 30% | 1014.1 hPa | 0 mm | - | 216 W/m² | - |
| 1777765082 | 20.56° C | 31% | 1014 hPa | 0 mm | - | 346 W/m² | - |
| 1777764779 | 20° C | 32% | 1014.4 hPa | 0 mm | - | 241 W/m² | - |
| 1777764475 | 20° C | 32% | 1014.4 hPa | 0 mm | - | 146 W/m² | - |
| 1777764172 | 20° C | 33% | 1014.4 hPa | 0 mm | - | 124 W/m² | - |
| 1777763869 | 20° C | 31% | 1014.7 hPa | 0 mm | - | 97 W/m² | - |
| 1777763566 | 20.56° C | 31% | 1014.6 hPa | 0 mm | - | 101 W/m² | - |
| 1777763265 | 20.56° C | 30% | 1014.5 hPa | 0 mm | - | 120 W/m² | - |
| 1777762963 | 20.56° C | 30% | 1014.5 hPa | 0 mm | - | 140 W/m² | - |
| 1777762659 | 20.56° C | 31% | 1014.4 hPa | 0 mm | - | 166 W/m² | - |
| 1777762356 | 21.11° C | 29% | 1014.6 hPa | 0 mm | - | 202 W/m² | - |
* Rain latest hour (hover to see other rain measurements)
** Current wind speed in m/s (hover to see current wind gust speed)